Location: Newark
(47.3000°N, 8.0500°E)
Time: 16:17:06
(UTC+00:00)

OTV 5 (USA 277) - Pass Details

Date: 28 August 2019
Orbit: 295 x 339 km, 54.5° (Epoch: 08 September)

Event Time Altitude Azimuth Distance (km) Brightness Sun altitude
Rises 20:26:28 0° 279° (W) 1,998 ? -20.2°
Reaches altitude 10° 20:28:44 10° 298° (WNW) 1,170 ? -20.5°
Maximum altitude 20:30:43 19° 348° (NNW) 795 ? -20.7°
Enters shadow 20:31:18 18° 8° (N) 835 ? -20.8°
